Location: Barbenuta
(42.5974°N, 0.2960°W)
Time: 18:24:14
(UTC+00:00)

Daily predictions for brighter satellites

Satellite Brightness Start Highest point End
(mag) Time Altitude Azimuth Time Altitude Azimuth Time Altitude Azimuth
Cosmos 2263 4.5 20:13:34 10° NNW 20:19:16 60° ENE 20:24:58 10° SE
SPOT 1/Viking Rocket 3.8 20:15:21 10° SSE 20:20:21 57° ENE 20:25:23 10° N
USA 307 3.1 20:16:48 10° WNW 20:20:56 61° SW 20:25:00 10° SE
H-2A R/B 3.5 20:18:14 10° S 20:21:52 40° W 20:25:29 10° NNW
Cosmos 1300 3.5 20:22:10 10° N 20:25:41 35° ENE 20:29:10 10° SE
Cosmos 1943 Rocket 3.8 20:24:04 10° NW 20:28:59 31° WSW 20:33:50 10° SSW
Cosmos 1908 3.8 20:25:28 10° NNW 20:29:15 58° W 20:33:01 10° S
Cosmos 1140 Rocket 4.4 20:28:38 10° N 20:33:24 35° ENE 20:37:57 11° SE
Cosmos 1943 3.2 20:29:37 10° SSW 20:35:18 82° ESE 20:40:59 10° NNE
Cosmos 1953 2.2 20:32:36 10° N 20:36:34 81° E 20:40:30 10° S
Cosmos 1603 3.7 20:33:36 10° SSW 20:39:16 78° ESE 20:45:00 10° NNE
Cosmos 1745 Rocket 4.1 20:34:35 10° N 20:40:41 64° E 20:46:48 10° SSE
Lacrosse 5 4.1 20:37:45 10° NNW 20:41:28 20° NNE 20:45:08 10° ENE
IRS-1A Rocket 4.5 20:35:40 10° SSE 20:41:34 86° WSW 20:47:31 10° NNW
Cosmos 1975 Rocket 3.9 20:40:05 10° SSE 20:44:06 34° E 20:48:07 10° NNE
Helios 1A Rocket 4.2 20:43:49 12° ESE 20:46:48 27° ENE 20:50:16 10° N
Ariane Rocket 3.0 20:42:48 10° SSE 20:47:53 86° E 20:53:01 10° NNW
CARTOSAT-1 3.7 20:44:35 11° SSE 20:48:34 60° ENE 20:52:50 10° N
H-2A R/B 3.0 20:44:49 10° N 20:49:04 53° WNW 20:53:22 10° SSW
USA 308 4.0 20:48:05 10° WNW 20:51:50 33° SW 20:55:11 12° SSE
USA 305 4.3 20:48:25 10° WNW 20:51:56 27° SW 20:55:21 10° S
Resurs 01 Rocket 2.2 20:48:01 10° S 20:52:23 58° W 20:56:47 10° NNW
Lacrosse 4 Rocket 2.6 20:51:27 10° SW 20:55:27 45° WNW 20:59:24 10° NNE
IRAS Rocket 4.2 20:49:58 10° NNE 20:55:38 82° ESE 21:01:12 10° SSW
Tiangong 1.3 20:54:10 10° WSW 20:57:14 49° SSE 21:00:12 11° E
DELTA 2 R/B (1) 3.8 20:54:39 10° W 21:00:07 57° SSW 21:04:45 15° ESE
FALCON 9 DEB 3.4 21:01:10 10° WSW 21:04:24 66° NW 21:07:40 10° NE
Terra 2.8 21:02:53 16° SE 21:06:02 34° ENE 21:10:19 10° N
Meteor 1-24 Rocket 3.8 21:06:09 14° SSE 21:10:35 50° E 21:15:44 10° NNE
Cosmos 2315 Rocket 4.1 21:05:26 10° S 21:11:42 65° E 21:17:57 10° NNE
USA 267 3.2 21:05:15 10° NE 21:11:48 70° SE 21:18:18 10° SW
Cosmos 1455 3.6 21:09:58 10° NNE 21:13:09 25° ENE 21:14:42 19° ESE
Cosmos 2369 Rocket 3.4 21:09:14 10° NW 21:14:19 36° WSW 21:19:24 10° S
Cosmos 1371 Rocket 4.1 21:11:16 10° S 21:16:19 55° ESE 21:21:28 10° NNE
Spot 2 Rocket 3.5 21:15:27 19° SSE 21:19:06 69° ENE 21:24:10 10° N
ERBS 3.4 21:17:24 10° WNW 21:20:02 28° SW 21:21:15 20° SSW
ATLAS 3B CENTAUR R/B 4.5 21:11:20 10° WSW 21:22:09 29° SSW 21:27:49 17° SSE
ARIANE 5 R/B 3.4 21:23:37 22° SE 21:25:58 38° ENE 21:30:07 10° N
SPOT 3 Rocket 3.8 21:22:41 15° S 21:26:57 66° WSW 21:32:09 10° NNW
Cosmos 2084 3.7 21:26:52 27° SSE 21:28:11 35° ESE 21:31:43 10° NE
CZ-4B R/B 4.0 21:26:24 10° NNW 21:28:22 17° WNW 21:30:20 10° WSW
Lacrosse 5 rocket 2.9 21:25:23 10° NNW 21:28:44 27° NNE 21:31:47 12° E
Cosmos 1709 Rocket 4.0 21:24:17 10° N 21:30:29 86° W 21:35:24 17° S
Cosmos 2251 Rocket 4.4 21:26:58 10° NNW 21:32:02 45° WSW 21:36:18 14° S
Cosmos 1624 Rocket 3.9 21:32:53 10° SSW 21:38:05 80° ESE 21:43:19 10° NNE
ATLAS 2AS CENTAUR R/B 3.3 21:33:13 10° NNW 21:40:06 48° NE 21:44:51 18° ESE
GENESIS II 4.4 21:37:56 10° NW 21:41:59 69° WSW 21:43:39 33° SSE
Cosmos 1190 Rocket 4.0 21:39:24 10° NNW 21:44:46 90° WSW 21:47:39 28° SSE
USA 234 3.9 21:38:52 11° ESE 21:44:50 51° NNE 21:51:09 10° NW
Cosmos 1833 Rocket 4.2 21:44:37 17° ESE 21:45:07 18° E 21:48:43 10° ENE
NOSS 3-4 (A) 4.3 21:38:43 10° NW 21:45:42 57° WSW 21:51:03 21° S
NOSS 3-4 (C) 4.3 21:38:49 10° NW 21:45:47 57° WSW 21:51:05 21° S
Atlas Centaur 2 3.6 21:49:53 10° SW 21:50:05 10° SW 21:50:05 10° SW
Cosmos 407 Rocket 4.0 21:46:49 10° NNW 21:51:50 51° WSW 21:54:51 23° S
Cosmos 1455 Rocket 3.8 21:47:52 10° NNW 21:52:03 47° W 21:54:41 21° SSW
SPOT 5 3.2 21:51:59 23° SSW 21:54:37 52° W 21:58:56 10° NNW
Cosmos 2056 Rocket 3.8 21:52:28 10° SSW 21:57:47 70° WNW 22:03:13 10° NNE
Meteor 2-5 Rocket 4.4 21:54:24 10° SSW 21:59:46 52° WNW 22:05:11 10° N
Cosmos 1271 Rocket 2.7 21:56:03 10° N 22:00:03 86° ENE 22:01:15 44° SSE
Cosmos 1025 Rocket 4.1 21:57:09 12° SW 22:00:50 40° WNW 22:04:54 10° N
ERS-1 Rocket 3.6 22:04:36 23° SSW 22:07:27 49° W 22:12:21 10° NNW
Cosmos 1420 Rocket 4.3 22:05:26 13° SSW 22:10:04 67° WNW 22:15:21 10° NNE
Cosmos 676 Rocket 4.0 22:05:54 10° NNW 22:11:15 88° WSW 22:13:24 37° SSE
Cosmos 1536 Rocket 3.4 22:13:47 41° S 22:15:17 89° W 22:19:38 10° N
Cosmos 1607 4.2 22:09:17 10° SW 22:15:31 68° NW 22:21:42 10° NNE
Cosmos 489 Rocket 4.5 22:11:17 10° NNW 22:17:38 78° ENE 22:20:31 35° SSE
Lacrosse 5 2.4 22:20:26 10° NW 22:25:27 53° NE 22:27:56 28° ESE
NOSS 2-1 (E) 4.4 22:21:44 10° NNW 22:26:30 66° NE 22:29:25 32° SE
Cosmos 1606 Rocket 4.2 22:22:42 10° N 22:26:47 39° ENE 22:27:26 37° E
Cosmos 724 4.2 22:24:23 17° SSW 22:28:55 88° WNW 22:34:45 10° NNE
SAR-Lupe-4 3.5 22:25:22 10° N 22:28:56 81° WNW 22:29:20 67° SW
Cosmos 2184 Rocket 3.9 22:24:54 10° N 22:31:05 82° W 22:33:49 36° S
Cosmos 1954 Rocket 4.5 22:27:31 10° NNW 22:32:38 51° WSW 22:34:28 35° SSW
TSX-5 4.0 22:33:04 55° S 22:33:58 76° ESE 22:39:10 10° NNE
Tiangong 2.7 22:30:50 10° W 22:32:27 27° W 22:32:27 27° W
Cosmos 1328 4.2 22:37:11 49° E 22:37:12 49° E 22:41:06 10° NNE
Cosmos 1850 Rocket 4.2 22:32:21 10° NNW 22:37:32 62° ENE 22:39:02 43° SE
Meteor 1-21 Rocket 4.1 22:35:48 42° S 22:37:43 76° E 22:43:20 10° NNE
Cosmos 1703 3.5 22:38:48 50° SW 22:39:30 61° W 22:43:20 10° N
Cosmos 2228 2.8 22:36:20 10° N 22:40:35 89° ENE 22:41:10 66° S
Cosmos 1408 4.3 22:43:33 21° ENE 22:43:33 21° ENE 22:45:26 10° NE
Terra 3.4 22:41:45 20° SW 22:43:48 26° W 22:47:48 10° NW
ALOS 2 3.8 22:46:37 29° E 22:47:26 31° ENE 22:51:18 10° N
Cosmos 1455 4.1 22:45:34 10° NW 22:48:27 21° W 22:49:28 19° WSW
Cosmos 1726 Rocket 3.6 22:48:59 10° N 22:53:15 59° E 22:53:36 57° ESE
USA 267 4.4 22:48:28 10° NE 22:54:34 43° NNW 23:00:40 10° W
Cosmos 1980 Rocket 3.7 22:51:19 10° N 22:56:10 28° NE 22:59:14 18° E
Cosmos 1331 Rocket 3.9 22:57:22 53° S 22:58:35 76° ESE 23:03:54 10° NNE
RESURS DK-1 2.8 22:54:36 10° NNW 22:58:39 50° ENE 22:59:03 48° E
Cosmos 1452 Rocket 3.9 22:57:20 31° SW 22:59:45 61° WNW 23:04:59 10° NNE
Cosmos 1697 Rocket 3.1 22:55:19 10° NNW 23:00:51 54° ENE 23:02:42 38° ESE
ARIANE 5 R/B 4.5 23:01:09 18° WSW 23:02:31 21° W 23:05:55 10° NW
Spot 4 3.7 23:04:25 61° SE 23:05:13 78° ENE 23:10:00 10° N
Cosmos 1892 3.7 23:06:34 36° ENE 23:06:34 36° ENE 23:09:27 10° NNE
Lacrosse 5 rocket 2.0 23:04:04 10° WNW 23:07:17 43° WSW 23:07:17 43° WSW
NOSS 2-1 (C) 4.4 23:03:09 10° NW 23:07:58 59° WSW 23:09:23 47° S
ADEOS Rocket 3.7 23:05:35 34° SE 23:08:34 58° ENE 23:15:51 10° N
ASTEX 1 3.7 23:05:17 10° N 23:10:13 61° W 23:11:35 44° SW
ERS-2 3.9 23:07:27 10° NE 23:09:26 22° ENE 23:09:26 22° ENE
Meteor 2-1 Rocket 4.3 23:10:13 10° NNW 23:15:40 65° W 23:17:01 48° SSW
Cosmos 2058 Rocket 3.2 23:12:09 10° N 23:16:30 61° E 23:16:43 60° E
Cosmos 2181 Rocket 4.1 23:15:18 45° SE 23:16:50 58° E 23:22:52 10° NNE
Cosmos 1110 Rocket 4.2 23:15:12 43° SW 23:16:52 69° WNW 23:22:09 10° NNE
Cosmos 1302 Rocket 4.0 23:21:10 56° SE 23:21:39 58° ESE 23:26:45 10° NNE
Cosmos 192 4.3 23:21:56 63° SE 23:22:14 65° ESE 23:27:05 10° NNE
GP-B 3.3 23:18:13 10° N 23:22:36 59° W 23:23:05 55° WSW
Cosmos 1892 Rocket 3.5 23:22:22 68° WSW 23:22:44 73° W 23:27:10 10° N
Cosmos 2360 4.2 23:17:48 10° NNW 23:23:34 80° ENE 23:25:01 52° SE
Cosmos 1656 4.2 23:22:18 10° NW 23:27:26 43° WSW 23:28:19 40° SW
USA 234 3.4 23:26:11 45° S 23:27:48 55° SW 23:34:13 10° NW
Cosmos 1833 Rocket 2.9 23:26:16 38° SW 23:28:24 66° WNW 23:34:01 10° NNE
ATLAS 2AS CENTAUR R/B 3.3 23:24:33 10° NW 23:30:50 37° WSW 23:32:16 34° SW
Okean 1-7 Rocket 3.6 23:39:49 66° E 23:39:49 66° E 23:44:11 10° NNE
Cosmos 1626 Rocket 3.7 23:42:03 57° E 23:42:03 57° E 23:46:08 10° NNE
Cosmos 2082 Rocket 2.2 23:41:32 58° SSE 23:42:28 69° ESE 23:48:09 10° NNE
ATLAS 5 CENTAUR R/B 3.6 23:51:03 13° E 23:51:03 13° E 23:51:54 10° ENE
Meteor 1-27 4.1 23:44:39 10° N 23:50:15 78° E 23:51:21 58° SSE
Cosmos 1869 3.6 23:47:30 10° N 23:50:55 60° NE 23:50:55 60° NE
BREEZE-M DEB (TANK) 3.9 23:43:39 10° WSW 23:55:29 74° NNW 23:59:01 10° ENE
